TimeCST,TemperatureF,Dew PointF,Humidity,Sea Level PressureIn,VisibilityMPH,Wind Direction,Wind SpeedMPH,Gust SpeedMPH,PrecipitationIn,Events,Conditions,WindDirDegrees,DateUTC
12:52 AM,25.0,19.0,78,30.31,8.0,ESE,6.9,-,N/A,,Clear,110,2013-03-07 06:52:00
1:52 AM,24.1,18.0,77,30.32,7.0,ESE,5.8,-,N/A,,Clear,110,2013-03-07 07:52:00
2:52 AM,24.1,18.0,77,30.30,7.0,ESE,4.6,-,N/A,,Clear,110,2013-03-07 08:52:00
3:52 AM,24.1,19.0,81,30.29,7.0,East,8.1,-,N/A,,Clear,100,2013-03-07 09:52:00
4:52 AM,24.1,18.0,77,30.29,7.0,East,6.9,-,N/A,,Clear,90,2013-03-07 10:52:00
5:52 AM,24.1,18.0,77,30.29,7.0,East,6.9,-,N/A,,Clear,90,2013-03-07 11:52:00
6:52 AM,24.1,18.0,77,30.28,5.0,East,8.1,-,N/A,,Haze,100,2013-03-07 12:52:00
7:52 AM,28.0,21.0,75,30.29,5.0,ESE,8.1,-,N/A,,Haze,110,2013-03-07 13:52:00
8:52 AM,32.0,24.1,73,30.29,6.0,ESE,11.5,-,N/A,,Haze,110,2013-03-07 14:52:00
9:52 AM,37.0,25.0,62,30.28,7.0,SE,9.2,-,N/A,,Clear,140,2013-03-07 15:52:00
10:52 AM,39.9,26.1,58,30.27,6.0,SE,10.4,-,N/A,,Haze,140,2013-03-07 16:52:00
11:52 AM,44.1,28.0,53,30.26,7.0,ESE,9.2,-,N/A,,Clear,120,2013-03-07 17:52:00
12:52 PM,46.9,28.9,50,30.22,7.0,SE,12.7,-,N/A,,Clear,140,2013-03-07 18:52:00
1:52 PM,50.0,28.9,44,30.19,7.0,ESE,13.8,-,N/A,,Clear,120,2013-03-07 19:52:00
2:52 PM,50.0,30.0,46,30.17,7.0,SE,16.1,-,N/A,,Clear,140,2013-03-07 20:52:00
3:52 PM,51.1,32.0,48,30.15,8.0,SE,16.1,-,N/A,,Clear,130,2013-03-07 21:52:00
4:52 PM,52.0,32.0,47,30.13,8.0,SE,13.8,-,N/A,,Clear,130,2013-03-07 22:52:00
5:52 PM,46.0,32.0,58,30.15,7.0,East,6.9,-,N/A,,Clear,90,2013-03-07 23:52:00
6:52 PM,41.0,30.0,65,30.16,8.0,East,6.9,-,N/A,,Clear,100,2013-03-08 00:52:00
7:52 PM,41.0,28.9,62,30.17,7.0,East,10.4,-,N/A,,Clear,80,2013-03-08 01:52:00
8:52 PM,37.0,28.9,73,30.19,6.0,East,9.2,-,N/A,,Haze,100,2013-03-08 02:52:00
9:52 PM,36.0,28.0,73,30.19,6.0,East,9.2,-,N/A,,Haze,100,2013-03-08 03:52:00
10:52 PM,35.1,28.0,76,30.20,6.0,East,6.9,-,N/A,,Haze,100,2013-03-08 04:52:00
11:52 PM,36.0,28.0,73,30.20,7.0,East,8.1,-,N/A,,Clear,100,2013-03-08 05:52:00